EN

Hourly Weather Abay

Today, 19 June, Saturday

Time Temperature Precipitation Wind Pressure Humidity
00:00 +25°C° 0 mm 4 mps 711 mmHg 21%
01:00 +23°C° 0 mm 4 mps 711 mmHg 23%
02:00 +23°C° 0 mm 4 mps 711 mmHg 25%
03:00 +23°C° 0 mm 4 mps 711 mmHg 25%
04:00 +23°C° 0 mm 4 mps 711 mmHg 25%
05:00 +23°C° 0 mm 5 mps 710 mmHg 24%
06:00 +27°C° 0 mm 5 mps 711 mmHg 21%
07:00 +30°C° 0 mm 5 mps 711 mmHg 18%
08:00 +34°C° 0 mm 5 mps 711 mmHg 14%
09:00 +35°C° 0 mm 6 mps 711 mmHg 14%
10:00 +36°C° 0 mm 7 mps 711 mmHg 14%
11:00 +38°C° 0 mm 9 mps 711 mmHg 13%
12:00 +38°C° 0 mm 9 mps 711 mmHg 15%
13:00 +38°C° 0 mm 9 mps 711 mmHg 17%
14:00 +37°C° 0 mm 9 mps 711 mmHg 19%
15:00 +35°C° 0 mm 9 mps 711 mmHg 21%
16:00 +34°C° 0 mm 9 mps 711 mmHg 23%
17:00 +33°C° 0 mm 9 mps 711 mmHg 25%
18:00 +31°C° 0.1 mm 8 mps 712 mmHg 26%
19:00 +28°C° 0.1 mm 6 mps 713 mmHg 26%
20:00 +25°C° 0.1 mm 5 mps 713 mmHg 27%
21:00 +25°C° 0 mm 4 mps 714 mmHg 26%
22:00 +23°C° 0 mm 4 mps 714 mmHg 25%
23:00 +22°C° 0 mm 3 mps 715 mmHg 24%

Tomorrow, 20 June, Sunday

Time Temperature Precipitation Wind Pressure Humidity
00:00 +20°C° 0 mm 3 mps 715 mmHg 26%
01:00 +19°C° 0 mm 3 mps 715 mmHg 27%
02:00 +17°C° 0 mm 3 mps 714 mmHg 29%
03:00 +16°C° 0 mm 3 mps 715 mmHg 32%
04:00 +16°C° 0 mm 3 mps 715 mmHg 36%
05:00 +14°C° 0 mm 3 mps 715 mmHg 39%
06:00 +17°C° 0 mm 4 mps 716 mmHg 37%
07:00 +17°C° 0 mm 5 mps 716 mmHg 35%
08:00 +20°C° 0 mm 6 mps 717 mmHg 33%
09:00 +22°C° 0 mm 6 mps 717 mmHg 29%
10:00 +23°C° 0 mm 6 mps 716 mmHg 26%
11:00 +26°C° 0 mm 6 mps 716 mmHg 23%
12:00 +27°C° 0 mm 6 mps 716 mmHg 21%
13:00 +28°C° 0 mm 6 mps 716 mmHg 19%
14:00 +29°C° 0 mm 7 mps 716 mmHg 18%
15:00 +28°C° 0 mm 6 mps 716 mmHg 17%
16:00 +28°C° 0 mm 6 mps 716 mmHg 17%
17:00 +28°C° 0 mm 6 mps 715 mmHg 16%
18:00 +26°C° 0 mm 6 mps 715 mmHg 17%
19:00 +25°C° 0 mm 5 mps 715 mmHg 18%
20:00 +22°C° 0 mm 5 mps 715 mmHg 19%
21:00 +20°C° 0 mm 4 mps 715 mmHg 22%
22:00 +19°C° 0 mm 3 mps 715 mmHg 24%
23:00 +17°C° 0 mm 3 mps 715 mmHg 26%

Day after tomorrow, 21 June, Monday

Time Temperature Precipitation Wind Pressure Humidity
00:00 +17°C° 0 mm 2 mps 715 mmHg 28%
01:00 +16°C° 0 mm 2 mps 714 mmHg 30%
02:00 +15°C° 0 mm 2 mps 714 mmHg 32%
03:00 +15°C° 0 mm 2 mps 714 mmHg 32%
04:00 +15°C° 0 mm 2 mps 714 mmHg 33%
05:00 +14°C° 0 mm 2 mps 714 mmHg 34%
06:00 +18°C° 0 mm 1 mps 714 mmHg 29%
07:00 +21°C° 0 mm 1 mps 715 mmHg 24%
08:00 +22°C° 0 mm 0 mps 715 mmHg 19%
09:00 +26°C° 0 mm 1 mps 715 mmHg 17%
10:00 +28°C° 0 mm 2 mps 715 mmHg 15%
11:00 +30°C° 0 mm 2 mps 715 mmHg 14%
12:00 +31°C° 0 mm 3 mps 714 mmHg 13%
13:00 +33°C° 0 mm 4 mps 714 mmHg 12%
14:00 +35°C° 0 mm 5 mps 714 mmHg 12%
15:00 +34°C° 0 mm 5 mps 714 mmHg 13%
16:00 +34°C° 0 mm 5 mps 714 mmHg 15%
17:00 +34°C° 0 mm 6 mps 714 mmHg 16%
18:00 +32°C° 0 mm 5 mps 714 mmHg 21%
19:00 +29°C° 0 mm 3 mps 714 mmHg 25%
20:00 +27°C° 0 mm 2 mps 713 mmHg 30%
21:00 +26°C° 0 mm 3 mps 714 mmHg 32%
22:00 +25°C° 0 mm 3 mps 714 mmHg 33%
23:00 +24°C° 0 mm 3 mps 715 mmHg 35%

22 June, Tuesday

Time Temperature Precipitation Wind Pressure Humidity
00:00 +21°C° 0 mm 3 mps 715 mmHg 33%
01:00 +20°C° 0 mm 3 mps 715 mmHg 32%
02:00 +19°C° 0 mm 2 mps 715 mmHg 30%
03:00 +18°C° 0 mm 2 mps 715 mmHg 31%
04:00 +17°C° 0 mm 2 mps 715 mmHg 33%
05:00 +16°C° 0 mm 1 mps 715 mmHg 34%
06:00 +18°C° 0 mm 2 mps 716 mmHg 32%
07:00 +20°C° 0 mm 2 mps 716 mmHg 31%
08:00 +24°C° 0 mm 2 mps 717 mmHg 29%
09:00 +25°C° 0 mm 3 mps 717 mmHg 26%
10:00 +27°C° 0 mm 4 mps 716 mmHg 23%
11:00 +29°C° 0 mm 4 mps 716 mmHg 20%
12:00 +30°C° 0 mm 5 mps 716 mmHg 19%
13:00 +32°C° 0 mm 5 mps 716 mmHg 18%
14:00 +32°C° 0 mm 6 mps 716 mmHg 16%
15:00 +32°C° 0 mm 6 mps 716 mmHg 17%
16:00 +32°C° 0 mm 6 mps 716 mmHg 17%
17:00 +32°C° 0 mm 6 mps 716 mmHg 17%
18:00 +28°C° 0 mm 6 mps 716 mmHg 19%
19:00 +26°C° 0 mm 5 mps 716 mmHg 21%
20:00 +23°C° 0 mm 4 mps 716 mmHg 23%
21:00 +22°C° 0 mm 4 mps 716 mmHg 26%
22:00 +20°C° 0 mm 4 mps 716 mmHg 29%
23:00 +19°C° 0 mm 4 mps 716 mmHg 32%

23 June, Wednesday

Time Temperature Precipitation Wind Pressure Humidity
00:00 +18°C° 0 mm 3 mps 716 mmHg 36%
01:00 +17°C° 0 mm 3 mps 716 mmHg 40%
02:00 +16°C° 0 mm 3 mps 716 mmHg 43%
03:00 +15°C° 0 mm 2 mps 716 mmHg 45%
04:00 +15°C° 0 mm 2 mps 716 mmHg 47%
05:00 +15°C° 0 mm 1 mps 716 mmHg 48%
06:00 +17°C° 0 mm 2 mps 716 mmHg 41%
07:00 +20°C° 0 mm 2 mps 717 mmHg 34%
08:00 +24°C° 0 mm 3 mps 717 mmHg 27%
09:00 +25°C° 0 mm 3 mps 717 mmHg 24%
10:00 +27°C° 0 mm 4 mps 717 mmHg 21%
11:00 +29°C° 0 mm 4 mps 717 mmHg 17%
12:00 +30°C° 0 mm 4 mps 717 mmHg 16%
13:00 +32°C° 0 mm 5 mps 716 mmHg 15%
14:00 +33°C° 0 mm 5 mps 716 mmHg 13%
15:00 +33°C° 0 mm 4 mps 716 mmHg 13%
16:00 +33°C° 0 mm 4 mps 716 mmHg 13%
17:00 +33°C° 0 mm 4 mps 715 mmHg 13%
18:00 +30°C° 0 mm 4 mps 715 mmHg 17%
19:00 +27°C° 0 mm 3 mps 715 mmHg 20%
20:00 +25°C° 0 mm 3 mps 715 mmHg 24%
21:00 +24°C° 0 mm 3 mps 714 mmHg 27%
22:00 +21°C° 0 mm 2 mps 714 mmHg 29%
23:00 +21°C° 0 mm 1 mps 714 mmHg 32%

24 June, Thursday

Time Temperature Precipitation Wind Pressure Humidity
00:00 +20°C° 0 mm 2 mps 714 mmHg 32%
01:00 +20°C° 0 mm 2 mps 713 mmHg 32%
02:00 +19°C° 0 mm 3 mps 713 mmHg 33%
03:00 +20°C° 0 mm 3 mps 713 mmHg 32%
04:00 +20°C° 0 mm 4 mps 713 mmHg 31%
05:00 +20°C° 0 mm 4 mps 713 mmHg 31%
06:00 +23°C° 0 mm 4 mps 713 mmHg 27%
07:00 +27°C° 0 mm 5 mps 713 mmHg 23%
08:00 +32°C° 0 mm 5 mps 714 mmHg 20%
09:00 +33°C° 0 mm 6 mps 714 mmHg 21%
10:00 +33°C° 0 mm 8 mps 714 mmHg 23%
11:00 +34°C° 0 mm 9 mps 714 mmHg 24%
12:00 +34°C° 0 mm 9 mps 714 mmHg 27%
13:00 +33°C° 0 mm 9 mps 714 mmHg 30%
14:00 +32°C° 0 mm 8 mps 715 mmHg 33%
15:00 +32°C° 0.1 mm 7 mps 715 mmHg 30%
16:00 +30°C° 0.1 mm 6 mps 715 mmHg 28%
17:00 +29°C° 0.1 mm 5 mps 716 mmHg 26%
18:00 +27°C° 0 mm 6 mps 716 mmHg 26%
19:00 +24°C° 0 mm 6 mps 716 mmHg 27%
20:00 +23°C° 0 mm 6 mps 716 mmHg 28%
21:00 +22°C° 0 mm 6 mps 716 mmHg 30%
22:00 +21°C° 0 mm 5 mps 716 mmHg 33%
23:00 +19°C° 0 mm 5 mps 716 mmHg 35%
Show more